| time (UTC) | temp F | wind direction | speed MPH | gust MPH | rain 1hr in | rain 24hr in | rain mn in | humidity % | barometer mb |
| 20260509060907 | 78 | 157 | 5.0 | 9.0 | 0.00 | 0.02 | 0.00 | 88 | 1008.7 |
| 20260509060401 | 78 | 2 | 5.0 | 9.0 | 0.00 | 0.02 | 0.00 | 88 | 1008.7 |
| 20260509055216 | 78 | 146 | 4.0 | 9.0 | 0.00 | 0.02 | 0.00 | 88 | 1009.1 |
| 20260509054714 | 78 | 152 | 4.0 | 9.0 | 0.00 | 0.02 | 0.00 | 88 | 1008.9 |
| 20260509054153 | 78 | 169 | 5.0 | 9.0 | 0.00 | 0.02 | 0.00 | 88 | 1008.9 |
| 20260509053633 | 78 | 2 | 5.0 | 9.0 | 0.00 | 0.02 | 0.00 | 88 | 1008.9 |
| 20260509053134 | 78 | 2 | 4.0 | 10.0 | 0.00 | 0.02 | 0.00 | 88 | 1008.9 |
| 20260509052613 | 78 | 160 | 4.0 | 10.0 | 0.00 | 0.02 | 0.00 | 88 | 1008.9 |
| 20260509052102 | 78 | 141 | 5.0 | 10.0 | 0.00 | 0.02 | 0.00 | 88 | 1009.0 |
| 20260509051551 | 78 | 2 | 6.0 | 10.0 | 0.00 | 0.02 | 0.00 | 88 | 1009.0 |
| 20260509051035 | 78 | 145 | 5.0 | 9.0 | 0.00 | 0.02 | 0.00 | 88 | 1009.1 |
| 20260509050518 | 78 | 129 | 5.0 | 10.0 | 0.00 | 0.02 | 0.00 | 88 | 1009.2 |
| 20260509050006 | 78 | 127 | 6.0 | 12.0 | 0.00 | 0.02 | 0.02 | 88 | 1009.5 |
| 20260509045451 | 78 | 115 | 6.0 | 12.0 | 0.00 | 0.02 | 0.02 | 88 | 1009.5 |
| 20260509044957 | 78 | 2 | 6.0 | 12.0 | 0.00 | 0.02 | 0.02 | 88 | 1009.4 |
| 20260509043826 | 78 | 188 | 5.0 | 10.0 | 0.00 | 0.02 | 0.02 | 88 | 1009.6 |
| 20260509043323 | 78 | 167 | 5.0 | 10.0 | 0.00 | 0.02 | 0.02 | 88 | 1009.7 |
| 20260509042143 | 78 | 130 | 7.0 | 12.0 | 0.00 | 0.02 | 0.02 | 88 | 1009.6 |
| 20260509041631 | 78 | 150 | 8.0 | 12.0 | 0.00 | 0.02 | 0.02 | 88 | 1009.6 |
| 20260509035821 | 78 | 166 | 7.0 | 11.0 | 0.00 | 0.02 | 0.02 | 88 | 1009.2 |
| 20260509035320 | 78 | 157 | 6.0 | 10.0 | 0.00 | 0.02 | 0.02 | 88 | 1009.1 |
| 20260509034804 | 78 | 132 | 6.0 | 10.0 | 0.00 | 0.02 | 0.02 | 88 | 1009.1 |
| 20260509034300 | 78 | 151 | 6.0 | 10.0 | 0.00 | 0.02 | 0.02 | 88 | 1009.2 |
| 20260509033742 | 78 | 162 | 6.0 | 10.0 | 0.00 | 0.02 | 0.02 | 88 | 1009.2 |
| 20260509033242 | 78 | 150 | 6.0 | 10.0 | 0.00 | 0.02 | 0.02 | 88 | 1009.1 |
| 20260509032738 | 78 | 157 | 6.0 | 12.0 | 0.00 | 0.02 | 0.02 | 88 | 1009.0 |
| 20260509032225 | 78 | 167 | 6.0 | 12.0 | 0.00 | 0.02 | 0.02 | 88 | 1008.9 |
| 20260509031711 | 78 | 157 | 6.0 | 12.0 | 0.00 | 0.02 | 0.02 | 88 | 1008.9 |
| 20260509031217 | 78 | 171 | 7.0 | 12.0 | 0.00 | 0.02 | 0.02 | 88 | 1008.7 |
| 20260509030708 | 78 | 175 | 8.0 | 12.0 | 0.00 | 0.02 | 0.02 | 88 | 1008.2 |
| 20260509030209 | 78 | 174 | 8.0 | 12.0 | 0.00 | 0.02 | 0.02 | 88 | 1008.2 |
| 20260509025655 | 78 | 188 | 6.0 | 10.0 | 0.00 | 0.02 | 0.02 | 88 | 1008.4 |
| 20260509025152 | 78 | 139 | 6.0 | 10.0 | 0.00 | 0.02 | 0.02 | 88 | 1008.8 |
| 20260509024655 | 78 | 159 | 6.0 | 12.0 | 0.00 | 0.02 | 0.02 | 88 | 1008.5 |
| 20260509024142 | 78 | 135 | 7.0 | 12.0 | 0.00 | 0.02 | 0.02 | 88 | 1008.7 |
| 20260509023023 | 78 | 152 | 6.0 | 11.0 | 0.00 | 0.02 | 0.02 | 88 | 1008.2 |
| 20260509022529 | 78 | 161 | 3.0 | 10.0 | 0.00 | 0.02 | 0.02 | 88 | 1008.2 |
| 20260509022009 | 78 | 117 | 1.0 | 4.0 | 0.00 | 0.02 | 0.02 | 88 | 1008.2 |
| 20260509021511 | 78 | 192 | 1.0 | 4.0 | 0.00 | 0.02 | 0.02 | 88 | 1008.1 |
| 20260509021005 | 78 | 137 | 0.0 | 3.0 | 0.00 | 0.02 | 0.02 | 88 | 1008.2 |
| 20260509020500 | 78 | 138 | 0.0 | 2.0 | 0.00 | 0.02 | 0.02 | 88 | 1008.7 |
| 20260509015954 | 78 | 190 | 0.0 | 5.0 | 0.00 | 0.02 | 0.02 | 88 | 1008.9 |
| 20260509015431 | 78 | 152 | 0.0 | 5.0 | 0.00 | 0.02 | 0.02 | 88 | 1008.7 |
| 20260509014939 | 78 | 136 | 1.0 | 5.0 | 0.00 | 0.02 | 0.02 | 88 | 1008.4 |
| 20260509014428 | 78 | 84 | 2.0 | 5.0 | 0.00 | 0.02 | 0.02 | 88 | 1007.7 |
| 20260509013308 | 78 | 150 | 0.0 | 4.0 | 0.00 | 0.02 | 0.02 | 88 | 1007.7 |
| 20260509012748 | 78 | 134 | 0.0 | 4.0 | 0.00 | 0.02 | 0.02 | 88 | 1007.9 |
| 20260509012229 | 78 | 159 | 0.0 | 3.0 | 0.00 | 0.02 | 0.02 | 88 | 1008.2 |
| 20260509011729 | 78 | 2 | 0.0 | 8.0 | 0.00 | 0.02 | 0.02 | 88 | 1008.4 |
| 20260509011224 | 78 | 167 | 3.0 | 8.0 | 0.00 | 0.02 | 0.02 | 88 | 1008.5 |
| 20260509005427 | 78 | 113 | 2.0 | 11.0 | 0.00 | 0.02 | 0.02 | 88 | 1008.2 |
| 20260509004911 | 78 | 32 | 2.0 | 11.0 | 0.00 | 0.02 | 0.02 | 88 | 1007.9 |
| 20260509004415 | 78 | 122 | 6.0 | 13.0 | 0.00 | 0.02 | 0.02 | 88 | 1007.7 |
| 20260509003910 | 78 | 73 | 9.0 | 13.0 | 0.00 | 0.02 | 0.02 | 88 | 1007.5 |
| 20260509002739 | 78 | 79 | 7.0 | 14.0 | 0.00 | 0.02 | 0.02 | 87 | 1008.1 |
| 20260509002233 | 78 | 84 | 9.0 | 14.0 | 0.00 | 0.02 | 0.02 | 87 | 1008.2 |
| 20260509001726 | 78 | 105 | 9.0 | 13.0 | 0.00 | 0.02 | 0.02 | 87 | 1008.0 |
| 20260509001212 | 78 | 92 | 7.0 | 11.0 | 0.00 | 0.02 | 0.02 | 87 | 1008.1 |
| 20260509000018 | 78 | 93 | 7.0 | 13.0 | 0.00 | 0.02 | 0.02 | 87 | 1008.3 |
| 20260508235500 | 78 | 92 | 9.0 | 13.0 | 0.00 | 0.02 | 0.02 | 87 | 1008.4 |
| 20260508234956 | 77 | 96 | 10.0 | 15.0 | 0.00 | 0.02 | 0.02 | 87 | 1008.1 |
| 20260508234455 | 77 | 93 | 10.0 | 15.0 | 0.00 | 0.02 | 0.02 | 87 | 1008.3 |
| 20260508233950 | 77 | 101 | 10.0 | 15.0 | 0.00 | 0.02 | 0.02 | 87 | 1008.3 |
| 20260508233433 | 77 | 82 | 10.0 | 15.0 | 0.00 | 0.02 | 0.02 | 87 | 1008.0 |
| 20260508232912 | 77 | 71 | 9.0 | 14.0 | 0.00 | 0.02 | 0.02 | 87 | 1008.3 |
| 20260508231746 | 77 | 111 | 6.0 | 11.0 | 0.00 | 0.02 | 0.02 | 87 | 1008.3 |
| 20260508230625 | 77 | 92 | 6.0 | 11.0 | 0.00 | 0.02 | 0.02 | 87 | 1008.4 |
| 20260508230115 | 77 | 93 | 6.0 | 11.0 | 0.00 | 0.02 | 0.02 | 87 | 1008.2 |
| 20260508225601 | 77 | 69 | 5.0 | 11.0 | 0.00 | 0.02 | 0.02 | 87 | 1008.6 |
| 20260508225107 | 77 | 69 | 6.0 | 11.0 | 0.00 | 0.02 | 0.02 | 87 | 1008.4 |
| 20260508224548 | 77 | 79 | 6.0 | 11.0 | 0.00 | 0.02 | 0.02 | 87 | 1008.3 |
| 20260508224027 | 77 | 86 | 6.0 | 13.0 | 0.00 | 0.02 | 0.02 | 87 | 1008.5 |
| 20260508223512 | 77 | 38 | 7.0 | 13.0 | 0.00 | 0.02 | 0.02 | 87 | 1008.3 |
| 20260508222959 | 77 | 89 | 7.0 | 13.0 | 0.00 | 0.02 | 0.02 | 87 | 1008.4 |
| 20260508222440 | 77 | 89 | 7.0 | 13.0 | 0.00 | 0.02 | 0.02 | 87 | 1008.4 |
| 20260508221319 | 77 | 71 | 7.0 | 11.0 | 0.00 | 0.02 | 0.02 | 87 | 1008.5 |
| 20260508220801 | 77 | 93 | 7.0 | 11.0 | 0.00 | 0.01 | 0.01 | 87 | 1008.6 |
| 20260508215654 | 76 | 75 | 5.0 | 11.0 | 0.00 | 0.01 | 0.01 | 86 | 1008.6 |
| 20260508215156 | 76 | 75 | 6.0 | 10.0 | 0.00 | 0.01 | 0.01 | 86 | 1008.6 |
| 20260508214636 | 76 | 77 | 6.0 | 10.0 | 0.00 | 0.01 | 0.01 | 86 | 1008.6 |
| 20260508213453 | 76 | 71 | 5.0 | 11.0 | 0.00 | 0.01 | 0.01 | 86 | 1008.8 |
| 20260508212328 | 76 | 84 | 6.0 | 12.0 | 0.00 | 0.00 | 0.00 | 86 | 1008.8 |
| 20260508211833 | 76 | 84 | 6.0 | 12.0 | 0.00 | 0.00 | 0.00 | 86 | 1008.8 |
| 20260508211314 | 76 | 87 | 7.0 | 13.0 | 0.00 | 0.00 | 0.00 | 86 | 1008.8 |
| 20260508205517 | 76 | 109 | 6.0 | 15.0 | 0.00 | 0.00 | 0.00 | 85 | 1008.9 |
| 20260508203734 | 76 | 78 | 8.0 | 13.0 | 0.00 | 0.00 | 0.00 | 85 | 1009.0 |
| 20260508203212 | 76 | 58 | 7.0 | 13.0 | 0.00 | 0.00 | 0.00 | 85 | 1009.1 |
| 20260508202653 | 76 | 82 | 6.0 | 13.0 | 0.00 | 0.00 | 0.00 | 85 | 1009.3 |
| 20260508202139 | 76 | 352 | 7.0 | 13.0 | 0.00 | 0.00 | 0.00 | 85 | 1009.4 |
| 20260508201630 | 76 | 84 | 9.0 | 13.0 | 0.00 | 0.00 | 0.00 | 85 | 1009.3 |
| 20260508201108 | 76 | 59 | 8.0 | 14.0 | 0.00 | 0.00 | 0.00 | 85 | 1009.4 |
| 20260508200603 | 76 | 61 | 8.0 | 14.0 | 0.00 | 0.00 | 0.00 | 85 | 1009.4 |
| 20260508200057 | 76 | 52 | 8.0 | 14.0 | 0.00 | 0.00 | 0.00 | 85 | 1009.4 |
| 20260508195602 | 75 | 26 | 9.0 | 14.0 | 0.00 | 0.00 | 0.00 | 84 | 1009.3 |
| 20260508195058 | 75 | 66 | 9.0 | 14.0 | 0.00 | 0.00 | 0.00 | 84 | 1009.5 |
| 20260508194558 | 75 | 66 | 8.0 | 14.0 | 0.00 | 0.00 | 0.00 | 84 | 1009.3 |
| 20260508194045 | 76 | 42 | 8.0 | 13.0 | 0.00 | 0.00 | 0.00 | 84 | 1009.4 |
| 20260508192933 | 76 | 115 | 6.0 | 12.0 | 0.00 | 0.00 | 0.00 | 84 | 1009.5 |
| 20260508191149 | 75 | 53 | 7.0 | 14.0 | 0.00 | 0.00 | 0.00 | 85 | 1009.8 |
| 20260508190639 | 75 | 42 | 8.0 | 16.0 | 0.00 | 0.00 | 0.00 | 85 | 1009.7 |
| 20260508190134 | 75 | 56 | 7.0 | 16.0 | 0.00 | 0.00 | 0.00 | 85 | 1009.7 |
| 20260508185637 | 75 | 36 | 8.0 | 16.0 | 0.00 | 0.00 | 0.00 | 85 | 1009.8 |
| 20260508185141 | 75 | 47 | 9.0 | 16.0 | 0.00 | 0.00 | 0.00 | 85 | 1009.8 |
| 20260508184640 | 75 | 37 | 10.0 | 16.0 | 0.00 | 0.00 | 0.00 | 85 | 1009.8 |
| 20260508183501 | 74 | 67 | 9.0 | 16.0 | 0.00 | 0.00 | 0.00 | 85 | 1009.5 |
| 20260508182950 | 75 | 70 | 7.0 | 16.0 | 0.00 | 0.00 | 0.00 | 85 | 1009.8 |
| 20260508182455 | 75 | 57 | 7.0 | 14.0 | 0.00 | 0.00 | 0.00 | 85 | 1010.0 |
| 20260508181939 | 74 | 52 | 7.0 | 17.0 | 0.00 | 0.00 | 0.00 | 86 | 1010.1 |
| 20260508181419 | 74 | 75 | 9.0 | 17.0 | 0.00 | 0.00 | 0.00 | 86 | 1010.2 |
| 20260508180907 | 74 | 43 | 9.0 | 17.0 | 0.00 | 0.00 | 0.00 | 86 | 1010.2 |
| 20260508180357 | 74 | 68 | 9.0 | 17.0 | 0.00 | 0.00 | 0.00 | 86 | 1010.1 |
| 20260508175854 | 74 | 53 | 7.0 | 15.0 | 0.00 | 0.00 | 0.00 | 87 | 1010.3 |
| 20260508175345 | 74 | 53 | 7.0 | 14.0 | 0.00 | 0.00 | 0.00 | 87 | 1010.3 |
| 20260508174203 | 73 | 46 | 8.0 | 14.0 | 0.00 | 0.00 | 0.00 | 87 | 1010.4 |
| 20260508173642 | 72 | 36 | 7.0 | 14.0 | 0.00 | 0.00 | 0.00 | 87 | 1010.6 |
| 20260508173135 | 72 | 29 | 6.0 | 11.0 | 0.00 | 0.00 | 0.00 | 87 | 1010.6 |
| 20260508172616 | 72 | 40 | 5.0 | 14.0 | 0.00 | 0.00 | 0.00 | 87 | 1010.7 |
| 20260508172113 | 72 | 29 | 6.0 | 14.0 | 0.00 | 0.00 | 0.00 | 87 | 1010.6 |
| 20260508171607 | 71 | 74 | 6.0 | 14.0 | 0.00 | 0.00 | 0.00 | 87 | 1010.7 |
| 20260508171052 | 71 | 68 | 6.0 | 14.0 | 0.00 | 0.00 | 0.00 | 87 | 1011.0 |
| 20260508165930 | 71 | 80 | 6.0 | 12.0 | 0.00 | 0.00 | 0.00 | 87 | 1011.1 |
| 20260508165434 | 71 | 66 | 6.0 | 12.0 | 0.00 | 0.00 | 0.00 | 87 | 1011.2 |
| 20260508164919 | 71 | 22 | 5.0 | 11.0 | 0.00 | 0.00 | 0.00 | 87 | 1011.3 |
| 20260508164424 | 71 | 25 | 4.0 | 12.0 | 0.00 | 0.00 | 0.00 | 87 | 1011.6 |
| 20260508163257 | 71 | 36 | 5.0 | 12.0 | 0.00 | 0.00 | 0.00 | 87 | 1011.8 |
| 20260508162751 | 71 | 65 | 6.0 | 12.0 | 0.00 | 0.00 | 0.00 | 87 | 1011.9 |
| 20260508162235 | 71 | 11 | 7.0 | 14.0 | 0.00 | 0.00 | 0.00 | 87 | 1011.8 |
| 20260508161049 | 71 | 50 | 8.0 | 15.0 | 0.00 | 0.00 | 0.00 | 87 | 1011.9 |
| 20260508160553 | 71 | 17 | 8.0 | 15.0 | 0.00 | 0.00 | 0.00 | 87 | 1011.9 |
| 20260508160033 | 71 | 40 | 8.0 | 15.0 | 0.00 | 0.00 | 0.00 | 87 | 1011.8 |
| 20260508155517 | 71 | 34 | 8.0 | 15.0 | 0.00 | 0.00 | 0.00 | 87 | 1011.8 |
| 20260508154959 | 71 | 17 | 8.0 | 15.0 | 0.00 | 0.00 | 0.00 | 87 | 1011.7 |
| 20260508154438 | 71 | 42 | 8.0 | 15.0 | 0.00 | 0.00 | 0.00 | 87 | 1011.9 |
| 20260508153926 | 71 | 14 | 8.0 | 15.0 | 0.00 | 0.00 | 0.00 | 87 | 1011.9 |
| 20260508153433 | 71 | 20 | 8.0 | 15.0 | 0.00 | 0.00 | 0.00 | 87 | 1012.0 |
| 20260508152916 | 71 | 45 | 7.0 | 14.0 | 0.00 | 0.00 | 0.00 | 86 | 1011.9 |
| 20260508152405 | 72 | 19 | 8.0 | 14.0 | 0.00 | 0.00 | 0.00 | 87 | 1011.8 |
| 20260508151847 | 72 | 30 | 8.0 | 14.0 | 0.00 | 0.00 | 0.00 | 86 | 1011.8 |
| 20260508151327 | 72 | 32 | 8.0 | 17.0 | 0.00 | 0.00 | 0.00 | 87 | 1012.0 |
| 20260508150805 | 72 | 33 | 8.0 | 17.0 | 0.00 | 0.00 | 0.00 | 86 | 1011.8 |
| 20260508145614 | 73 | 11 | 6.0 | 13.0 | 0.00 | 0.00 | 0.00 | 86 | 1011.5 |
| 20260508145111 | 73 | 18 | 6.0 | 11.0 | 0.00 | 0.00 | 0.00 | 86 | 1011.4 |
| 20260508143930 | 73 | 350 | 7.0 | 11.0 | 0.00 | 0.00 | 0.00 | 86 | 1011.6 |
| 20260508143434 | 73 | 13 | 6.0 | 9.0 | 0.00 | 0.00 | 0.00 | 86 | 1011.7 |
| 20260508142933 | 73 | 7 | 5.0 | 9.0 | 0.00 | 0.00 | 0.00 | 86 | 1011.8 |
| 20260508142416 | 73 | 26 | 4.0 | 9.0 | 0.00 | 0.00 | 0.00 | 86 | 1011.8 |
| 20260508141913 | 73 | 54 | 4.0 | 9.0 | 0.00 | 0.00 | 0.00 | 86 | 1011.6 |
| 20260508141414 | 73 | 32 | 4.0 | 9.0 | 0.00 | 0.00 | 0.00 | 86 | 1011.6 |
| 20260508140908 | 73 | 74 | 5.0 | 9.0 | 0.00 | 0.00 | 0.00 | 86 | 1011.6 |
| 20260508140350 | 73 | 13 | 5.0 | 11.0 | 0.00 | 0.00 | 0.00 | 86 | 1011.6 |
| 20260508135846 | 73 | 22 | 5.0 | 11.0 | 0.00 | 0.00 | 0.00 | 86 | 1011.5 |
| 20260508135339 | 74 | 357 | 5.0 | 11.0 | 0.00 | 0.00 | 0.00 | 86 | 1011.4 |
| 20260508134831 | 75 | 56 | 6.0 | 11.0 | 0.00 | 0.00 | 0.00 | 86 | 1011.4 |
| 20260508134336 | 75 | 80 | 5.0 | 10.0 | 0.00 | 0.00 | 0.00 | 86 | 1011.5 |
| 20260508133825 | 74 | 42 | 5.0 | 10.0 | 0.00 | 0.00 | 0.00 | 86 | 1011.6 |
| 20260508133307 | 74 | 61 | 4.0 | 10.0 | 0.00 | 0.00 | 0.00 | 86 | 1011.7 |
| 20260508132806 | 74 | 65 | 4.0 | 10.0 | 0.00 | 0.00 | 0.00 | 86 | 1011.9 |
| 20260508132246 | 74 | 57 | 5.0 | 11.0 | 0.00 | 0.00 | 0.00 | 86 | 1011.9 |
| 20260508131751 | 74 | 65 | 6.0 | 11.0 | 0.00 | 0.00 | 0.00 | 86 | 1011.9 |
| 20260508130638 | 74 | 88 | 7.0 | 16.0 | 0.00 | 0.00 | 0.00 | 86 | 1011.8 |
| 20260508130123 | 74 | 40 | 8.0 | 16.0 | 0.00 | 0.00 | 0.00 | 86 | 1011.8 |
| 20260508125607 | 74 | 48 | 8.0 | 16.0 | 0.00 | 0.00 | 0.00 | 85 | 1011.8 |
| 20260508125104 | 74 | 63 | 8.0 | 14.0 | 0.00 | 0.00 | 0.00 | 85 | 1011.7 |
| 20260508124546 | 73 | 69 | 8.0 | 14.0 | 0.00 | 0.00 | 0.00 | 85 | 1011.6 |
| 20260508124038 | 73 | 63 | 8.0 | 16.0 | 0.00 | 0.00 | 0.00 | 85 | 1011.5 |
| 20260508123535 | 73 | 69 | 7.0 | 16.0 | 0.00 | 0.00 | 0.00 | 85 | 1011.4 |
| 20260508123021 | 73 | 61 | 7.0 | 16.0 | 0.00 | 0.00 | 0.00 | 85 | 1011.2 |
| 20260508122500 | 73 | 82 | 7.0 | 16.0 | 0.00 | 0.00 | 0.00 | 85 | 1011.3 |
| 20260508121939 | 74 | 48 | 6.0 | 12.0 | 0.00 | 0.00 | 0.00 | 85 | 1011.4 |
| 20260508120757 | 73 | 65 | 5.0 | 10.0 | 0.00 | 0.00 | 0.00 | 85 | 1011.5 |
| 20260508120235 | 74 | 34 | 5.0 | 12.0 | 0.00 | 0.00 | 0.00 | 85 | 1011.4 |
| 20260508115740 | 74 | 82 | 6.0 | 12.0 | 0.00 | 0.00 | 0.00 | 85 | 1011.5 |
| 20260508115230 | 74 | 336 | 6.0 | 13.0 | 0.00 | 0.00 | 0.00 | 85 | 1011.4 |
| 20260508114720 | 74 | 51 | 5.0 | 13.0 | 0.00 | 0.00 | 0.00 | 85 | 1011.4 |
| 20260508114217 | 75 | 63 | 5.0 | 13.0 | 0.00 | 0.00 | 0.00 | 85 | 1011.5 |
| 20260508113717 | 76 | 61 | 6.0 | 13.0 | 0.00 | 0.00 | 0.00 | 86 | 1011.6 |
| 20260508113218 | 76 | 87 | 6.0 | 11.0 | 0.00 | 0.00 | 0.00 | 86 | 1011.6 |
| 20260508112722 | 76 | 101 | 7.0 | 11.0 | 0.00 | 0.00 | 0.00 | 86 | 1011.4 |
| 20260508112215 | 76 | 98 | 7.0 | 11.0 | 0.00 | 0.00 | 0.00 | 86 | 1011.4 |
| 20260508111653 | 76 | 95 | 7.0 | 11.0 | 0.00 | 0.00 | 0.00 | 86 | 1011.5 |
| 20260508111143 | 76 | 80 | 6.0 | 11.0 | 0.00 | 0.00 | 0.00 | 86 | 1011.5 |
| 20260508105954 | 76 | 59 | 6.0 | 11.0 | 0.00 | 0.00 | 0.00 | 85 | 1011.3 |
| 20260508105447 | 77 | 47 | 5.0 | 9.0 | 0.00 | 0.00 | 0.00 | 85 | 1011.4 |
| 20260508104942 | 77 | 61 | 4.0 | 10.0 | 0.00 | 0.00 | 0.00 | 85 | 1011.5 |
| 20260508104431 | 77 | 87 | 5.0 | 10.0 | 0.00 | 0.00 | 0.00 | 85 | 1011.4 |
| 20260508103929 | 77 | 32 | 5.0 | 10.0 | 0.00 | 0.00 | 0.00 | 85 | 1011.3 |
| 20260508103423 | 77 | 69 | 4.0 | 10.0 | 0.00 | 0.00 | 0.00 | 85 | 1011.2 |
| 20260508102926 | 77 | 100 | 4.0 | 9.0 | 0.00 | 0.00 | 0.00 | 85 | 1011.1 |
| 20260508102433 | 77 | 59 | 5.0 | 9.0 | 0.00 | 0.00 | 0.00 | 85 | 1011.1 |
| 20260508101934 | 77 | 90 | 5.0 | 9.0 | 0.00 | 0.00 | 0.00 | 85 | 1011.2 |
| 20260508100750 | 77 | 76 | 5.0 | 9.0 | 0.00 | 0.00 | 0.00 | 85 | 1011.5 |
| 20260508100239 | 77 | 73 | 5.0 | 9.0 | 0.00 | 0.00 | 0.00 | 85 | 1011.5 |
| 20260508095741 | 77 | 75 | 5.0 | 9.0 | 0.00 | 0.00 | 0.00 | 85 | 1011.5 |
| 20260508095226 | 77 | 105 | 5.0 | 11.0 | 0.00 | 0.00 | 0.00 | 85 | 1011.5 |
| 20260508094721 | 77 | 86 | 6.0 | 11.0 | 0.00 | 0.00 | 0.00 | 85 | 1011.3 |
| 20260508094200 | 77 | 64 | 7.0 | 11.0 | 0.00 | 0.00 | 0.00 | 85 | 1011.1 |
| 20260508093644 | 77 | 81 | 7.0 | 11.0 | 0.00 | 0.00 | 0.00 | 85 | 1011.2 |
| 20260508093139 | 77 | 100 | 7.0 | 10.0 | 0.00 | 0.00 | 0.00 | 85 | 1011.3 |
| 20260508092630 | 77 | 110 | 6.0 | 10.0 | 0.00 | 0.00 | 0.00 | 85 | 1011.5 |
| 20260508092119 | 77 | 79 | 5.0 | 9.0 | 0.00 | 0.00 | 0.00 | 85 | 1011.4 |
| 20260508091617 | 77 | 69 | 6.0 | 11.0 | 0.00 | 0.00 | 0.00 | 85 | 1011.3 |
| 20260508091121 | 77 | 88 | 6.0 | 11.0 | 0.00 | 0.00 | 0.00 | 85 | 1011.2 |
| 20260508090628 | 77 | 78 | 5.0 | 11.0 | 0.00 | 0.00 | 0.00 | 85 | 1011.2 |
| 20260508090124 | 77 | 84 | 5.0 | 11.0 | 0.00 | 0.00 | 0.00 | 85 | 1011.2 |
| 20260508084322 | 77 | 57 | 7.0 | 10.0 | 0.00 | 0.00 | 0.00 | 85 | 1011.3 |
| 20260508083148 | 76 | 93 | 7.0 | 10.0 | 0.00 | 0.00 | 0.00 | 85 | 1011.5 |
| 20260508082655 | 76 | 66 | 7.0 | 12.0 | 0.00 | 0.00 | 0.00 | 85 | 1011.5 |
| 20260508082148 | 76 | 100 | 7.0 | 12.0 | 0.00 | 0.00 | 0.00 | 85 | 1011.5 |
| 20260508081645 | 76 | 69 | 7.0 | 12.0 | 0.00 | 0.00 | 0.00 | 85 | 1011.6 |
| 20260508081135 | 76 | 86 | 6.0 | 12.0 | 0.00 | 0.00 | 0.00 | 84 | 1011.8 |
| 20260508080633 | 76 | 87 | 6.0 | 11.0 | 0.00 | 0.00 | 0.00 | 84 | 1011.7 |
| 20260508080135 | 76 | 82 | 6.0 | 14.0 | 0.00 | 0.00 | 0.00 | 84 | 1011.5 |
| 20260508075629 | 76 | 86 | 6.0 | 14.0 | 0.00 | 0.00 | 0.00 | 84 | 1011.6 |
| 20260508075107 | 76 | 48 | 8.0 | 14.0 | 0.00 | 0.00 | 0.00 | 84 | 1011.7 |
| 20260508074550 | 76 | 106 | 9.0 | 14.0 | 0.00 | 0.00 | 0.00 | 84 | 1011.4 |
| 20260508073421 | 76 | 86 | 9.0 | 16.0 | 0.00 | 0.00 | 0.00 | 84 | 1011.7 |
| 20260508072913 | 76 | 90 | 11.0 | 16.0 | 0.00 | 0.00 | 0.00 | 84 | 1011.8 |
| 20260508071735 | 76 | 88 | 11.0 | 20.0 | 0.00 | 0.00 | 0.00 | 83 | 1011.9 |
| 20260508071220 | 76 | 75 | 12.0 | 20.0 | 0.00 | 0.00 | 0.00 | 83 | 1011.9 |
| 20260508070703 | 76 | 93 | 15.0 | 21.0 | 0.00 | 0.00 | 0.00 | 83 | 1011.4 |
| 20260508070143 | 76 | 123 | 16.0 | 21.0 | 0.00 | 0.00 | 0.00 | 83 | 1011.1 |
| 20260508065630 | 76 | 104 | 17.0 | 21.0 | 0.00 | 0.00 | 0.00 | 82 | 1011.1 |
| 20260508065127 | 76 | 77 | 16.0 | 21.0 | 0.00 | 0.00 | 0.00 | 82 | 1011.1 |
| 20260508064634 | 76 | 105 | 15.0 | 24.0 | 0.00 | 0.00 | 0.00 | 82 | 1011.6 |
| 20260508063505 | 77 | 99 | 19.0 | 24.0 | 0.00 | 0.01 | 0.00 | 81 | 1010.9 |
| 20260508062945 | 77 | 84 | 18.0 | 24.0 | 0.00 | 0.01 | 0.00 | 81 | 1010.9 |
| 20260508062438 | 77 | 92 | 17.0 | 23.0 | 0.00 | 0.01 | 0.00 | 80 | 1011.5 |
| 20260508061934 | 77 | 109 | 16.0 | 21.0 | 0.00 | 0.01 | 0.00 | 80 | 1011.9 |
| 20260508061431 | 77 | 100 | 14.0 | 20.0 | 0.00 | 0.01 | 0.00 | 80 | 1012.0 |